Preview of NWS' New Version of Forecast
This preview is not operational and should not be used for support decisions.

Regional Weather Roundup (RWR)

Issued by Gray - Portland, ME (GYX)

                            
949 
ASUS41 KGYX 181105
RWRGYX
WEATHER ROUNDUP FOR MAINE AND NEW HAMPSHIRE
NATIONAL WEATHER SERVICE GRAY ME
600 AM EST SUN FEB 18 2018

MEZ002-005-006-010-012-015-018-020-021-024-026-027-029-181200-
MAINE
  
CITY           SKY/WX    TMP DP  RH WIND       PRES   REMARKS
PORTLAND       LGT SNOW  30  29  96 NW10G16   29.96R VSB 3/4          
SANFORD        LGT SNOW  29  28  96 NW6       29.95R VSB 1            
BAR HARBOR     LGT SNOW  32  31  96 CALM      29.95S VSB 3/4          
WISCASSET      LGT SNOW  32  32 100 VRB3      29.96R VSB 3/4          
ROCKLAND       LGT SNOW  32  32 100 CALM      29.93F FOG              
FRYEBURG       LGT SNOW  26  26 100 CALM      29.96R FOG              
LEWISTONAUBURN LGT SNOW  27  26  96 N5        29.97R FOG              
AUGUSTA        LGT SNOW  25  23  92 N10       29.96R VSB 1   WCI  15  
WATERVILLE     LGT SNOW  25  23  92 N6        29.92R FOG              
BANGOR         SNOW      28  27  96 N12       29.95S VSB 1/2 WCI  18  
GREENVILLE       N/A     21  20  96 NW5       29.88S                  
MILLINOCKET    LGT SNOW  20  19  96 CALM      29.99S FOG              
HOULTON        LGT SNOW  20  17  88 N7        29.97S FOG              
PRESQUE ISLE   LGT SNOW  18  16  92 SE3       29.99S FOG              
FRENCHVILLE    LGT SNOW  15  13  91 SE6       29.94S FOG              
CARIBOU        LGT SNOW  19  16  88 SE3       29.97S FOG              
$$

NHZ002-005-008-009-011-012-014-181200-
NEW HAMPSHIRE
  
CITY           SKY/WX    TMP DP  RH WIND       PRES   REMARKS
PORTSMOUTH     LGT SNOW  31  30  98 NW6       29.93R VSB 3/4          
ROCHESTER      LGT SNOW  29  29 100 NW12      29.94R FOG     WCI  19  
NASHUA         LGT SNOW  29  29 100 NW8       29.98R FOG              
MANCHESTER     LGT SNOW  30  28  92 NW9       29.96R FOG              
CONCORD        LGT SNOW  28  25  88 NW9       29.97R FOG              
LACONIA        LGT SNOW  26  25  96 CALM      29.97R FOG              
PLYMOUTH       LGT SNOW  26  25  94 W5        29.97R                  
BERLIN         LGT SNOW  25  22  88 CALM      29.94R FOG              
WHITEFIELD     LGT SNOW  26  24  92 W3        29.96R FOG              
JAFFREY        LGT SNOW  29  27  92 CALM      29.94R FOG              
KEENE          CLOUDY    28  26  92 CALM      29.99R                  
LEBANON        LGT SNOW  28  26  92 CALM      29.98R FOG              
MT WASHINGTON  SNOW       9   9 100 NW46        N/A  VSB 0   WCI -18  
$$

VTZ005-007-008-181200-
VERMONT
  
CITY           SKY/WX    TMP DP  RH WIND       PRES   REMARKS
ST JOHNSBURY     N/A     25  25 100 MISG      29.97R                  
MONTPELIER     LGT SNOW  24  24 100 CALM      29.99R FOG              
BURLINGTON     FLURRIES  30  26  85 NW8       30.04R                  
$$

MAZ007-012-024-CTZ003-RIZ002-NYZ038-NYZ072-181200-
SOUTHERN NEW ENGLAND AND NY
  
CITY           SKY/WX    TMP DP  RH WIND       PRES   REMARKS
BOSTON         LGT SNOW  33  32  96 NW10      29.93R FOG              
WORCESTER      FLURRIES  29  26  89 W14       29.92R WCI  18          
NANTUCKET      LGT RAIN  41  41 100 NW15G23   29.85R FOG              
PROVIDENCE     LGT SNOW  33  32  96 NW13G21   29.95R VSB 1            
HARTFORD       MOCLDY    28  27  96 CALM      30.00R FOG              
ALBANY         FAIR      31  24  75 W13       30.06R                  
NEW YORK CITY  FAIR      36  30  79 W17       30.06R                  
$$

ANZ081-ANZ082-ANZ150-NHZ014-MEZ023>029-181200-
COASTAL MARINE OBSERVATIONS
  
STATION/POSITION TIME  TEMP    WIND        PRES    WAVE
                       AIR SEA DIR/SP/G            HT/PER
                 (UTC) (F)     (DEG/KT/KT) (MB)    (FT/S)
MOUNT DESERT ROC 1100   36     110/ 23/ 26 1012.4F
MATINICUS ROCK   1000   36     160/ 13/ 16 1012.6F
ISLE OF SHOALS   1000   32     360/ 12/ 13 1012.6R
JEFFREYS LEDGE   1006      41                N/A     7/ 7
GEORGES BANK BUO 0950   29 42              1029.0   10/10
$$

.............KEY..............
   WCI - WIND CHILL
   TC  - TEMPERATURE IN CELSIUS
   VSB - VISIBILITY IN MILES
   HX  - HEAT INDEX
   FAIR- INDICATES FEW OR NO CLOUDS BELOW 12,000 FT, WITH NO 
         SIGNIFICANT WEATHER AND/OR OBSTRUCTIONS TO VISIBILITY.